CHH5123 ZSJN-ZSHC

Flight info

Callsign CHH5123
Flight time 1h 4m
Altitude 37100
Route ABTUB7Y ABTUB A593 DPX A470 OF W95 SAPIN A470 IGRAT IGRAT62
Aircraft A346/H-SDE2E3FGHIJ3J4J5M1RWXY/LB1D1

Departure

Time 2026-04-23 12:32
Airport Jinan Yaoqiang International Airport (ZSJN)

Arrival

Time 2026-04-23 13:37
Airport Hangzhou Xiaoshan International Airport (ZSHC)
Time Latitude Longitude Altitude Speed Heading
2026-04-23 12:16 36.85574 117.21163 93 ft 0 kts 270°
2026-04-23 12:23 36.85574 117.21176 93 ft 2 kts 275°
2026-04-23 12:23 36.85571 117.21194 93 ft 2 kts 287°
2026-04-23 12:24 36.85566 117.21210 93 ft 2 kts 296°
2026-04-23 12:24 36.85559 117.21227 93 ft 2 kts 306°
2026-04-23 12:24 36.85549 117.21241 93 ft 2 kts 315°
2026-04-23 12:24 36.85538 117.21253 93 ft 2 kts 324°
2026-04-23 12:25 36.85525 117.21262 93 ft 2 kts 334°
2026-04-23 12:25 36.85512 117.21269 93 ft 2 kts 343°
2026-04-23 12:25 36.85495 117.21274 93 ft 2 kts 354°
2026-04-23 12:25 36.85514 117.21274 93 ft 16 kts
2026-04-23 12:26 36.85806 117.21276 93 ft 27 kts 359°
2026-04-23 12:26 36.86059 117.21275 93 ft 44 kts 360°
2026-04-23 12:26 36.86511 117.21272 93 ft 69 kts
2026-04-23 12:26 36.86985 117.21272 93 ft 68 kts 357°
2026-04-23 12:27 36.87434 117.21276 93 ft 54 kts 359°
2026-04-23 12:27 36.87340 117.21286 93 ft 0 kts 91°
2026-04-23 12:27 36.87340 117.21313 93 ft 5 kts 90°
2026-04-23 12:27 36.87340 117.21337 93 ft 2 kts 90°
2026-04-23 12:28 36.87340 117.21352 93 ft 0 kts 89°
2026-04-23 12:30 36.87340 117.21378 93 ft 0 kts 89°
2026-04-23 12:30 36.87341 117.21400 93 ft 4 kts 89°
2026-04-23 12:30 36.87342 117.21454 93 ft 5 kts 89°
2026-04-23 12:30 36.87342 117.21458 93 ft 0 kts 89°
2026-04-23 12:31 36.87339 117.21544 93 ft 15 kts 104°
2026-04-23 12:31 36.87231 117.21600 93 ft 45 kts 178°
2026-04-23 12:32 36.86622 117.21587 93 ft 127 kts 176°
2026-04-23 12:32 36.85537 117.21590 180 ft 174 kts 182°
2026-04-23 12:32 36.84300 117.21601 695 ft 181 kts 181°
2026-04-23 12:32 36.83047 117.21652 1278 ft 182 kts 180°
2026-04-23 12:33 36.81785 117.21689 1874 ft 183 kts 182°
2026-04-23 12:33 36.80459 117.21683 2433 ft 201 kts 182°
2026-04-23 12:33 36.79018 117.21667 3044 ft 221 kts 181°
2026-04-23 12:33 36.77398 117.21652 3708 ft 244 kts 181°
2026-04-23 12:34 36.75664 117.21639 4559 ft 258 kts 181°
2026-04-23 12:34 36.73866 117.21623 5602 ft 264 kts 180°
2026-04-23 12:34 36.72030 117.21607 6648 ft 270 kts 180°
2026-04-23 12:34 36.70118 117.21593 7673 ft 278 kts 180°
2026-04-23 12:35 36.68171 117.21577 8634 ft 286 kts 180°
2026-04-23 12:35 36.66169 117.21558 9598 ft 294 kts 180°
2026-04-23 12:35 36.64110 117.21538 10524 ft 304 kts 180°
2026-04-23 12:35 36.61946 117.21518 11199 ft 322 kts 180°
2026-04-23 12:36 36.59652 117.21495 11832 ft 339 kts 180°
2026-04-23 12:36 36.57271 117.21471 12698 ft 348 kts 180°
2026-04-23 12:36 36.54855 117.21446 13683 ft 352 kts 180°
2026-04-23 12:36 36.52412 117.21422 14616 ft 356 kts 180°
2026-04-23 12:37 36.49929 117.21398 15459 ft 362 kts 180°
2026-04-23 12:37 36.47368 117.21373 16315 ft 368 kts 180°
2026-04-23 12:37 36.44802 117.21363 17126 ft 374 kts 178°
2026-04-23 12:37 36.42240 117.21917 17877 ft 380 kts 161°
2026-04-23 12:38 36.39869 117.23345 18650 ft 384 kts 144°
2026-04-23 12:38 36.37804 117.25432 19454 ft 387 kts 137°
2026-04-23 12:38 36.35809 117.27665 20249 ft 391 kts 136°
2026-04-23 12:38 36.33791 117.29923 21010 ft 395 kts 137°
2026-04-23 12:39 36.31736 117.32186 21755 ft 399 kts 137°
2026-04-23 12:39 36.29623 117.34415 22487 ft 403 kts 143°
2026-04-23 12:39 36.27145 117.36089 23181 ft 408 kts 159°
2026-04-23 12:39 36.24353 117.36944 23594 ft 420 kts 174°
2026-04-23 12:40 36.21389 117.37034 23902 ft 435 kts 181°
2026-04-23 12:40 36.18308 117.36970 24199 ft 452 kts 182°
2026-04-23 12:40 36.15120 117.36897 24578 ft 466 kts 182°
2026-04-23 12:40 36.11866 117.36850 25225 ft 472 kts 182°
2026-04-23 12:41 36.08578 117.36826 25956 ft 476 kts 182°
2026-04-23 12:41 36.05266 117.36814 26667 ft 480 kts 181°
2026-04-23 12:41 36.01924 117.37018 27332 ft 486 kts 176°
2026-04-23 12:41 35.98517 117.37611 27977 ft 492 kts 172°
2026-04-23 12:42 35.95178 117.38588 28591 ft 498 kts 166°
2026-04-23 12:42 35.91848 117.39803 29174 ft 503 kts 166°
2026-04-23 12:42 35.88506 117.41067 29833 ft 505 kts 165°
2026-04-23 12:42 35.85177 117.42336 30663 ft 501 kts 166°
2026-04-23 12:43 35.81873 117.43589 31443 ft 498 kts 166°
2026-04-23 12:43 35.78581 117.44827 32138 ft 496 kts 166°
2026-04-23 12:43 35.75293 117.46056 32792 ft 495 kts 166°
2026-04-23 12:43 35.72013 117.47281 33424 ft 494 kts 166°
2026-04-23 12:44 35.68738 117.48502 34057 ft 493 kts 167°
2026-04-23 12:44 35.65425 117.49735 34603 ft 492 kts 167°
2026-04-23 12:44 35.62171 117.50946 35132 ft 490 kts 167°
2026-04-23 12:44 35.58926 117.52153 35600 ft 489 kts 167°
2026-04-23 12:45 35.55677 117.53359 36088 ft 490 kts 168°
2026-04-23 12:45 35.52417 117.54564 36524 ft 492 kts 168°
2026-04-23 12:45 35.49140 117.55774 36925 ft 495 kts 168°
2026-04-23 12:45 35.45849 117.56990 37124 ft 496 kts 168°
2026-04-23 12:46 35.39246 117.59430 37129 ft 497 kts 168°
2026-04-23 12:46 35.32597 117.61881 37131 ft 496 kts 168°
2026-04-23 12:47 35.26001 117.64308 37130 ft 497 kts 168°
2026-04-23 12:47 35.19409 117.66732 37127 ft 495 kts 169°
2026-04-23 12:48 35.12837 117.69140 37130 ft 494 kts 169°
2026-04-23 12:48 35.06275 117.71544 37129 ft 494 kts 169°
2026-04-23 12:49 34.99672 117.73967 37128 ft 493 kts 169°
2026-04-23 12:49 34.93131 117.76360 37128 ft 492 kts 170°
2026-04-23 12:50 34.86572 117.78753 37130 ft 493 kts 170°
2026-04-23 12:50 34.80028 117.81147 37132 ft 492 kts 170°
2026-04-23 12:51 34.73476 117.83514 37134 ft 492 kts 170°
2026-04-23 12:51 34.66938 117.85867 37137 ft 491 kts 170°
2026-04-23 12:52 34.60464 117.88100 38603 ft 458 kts 173°
2026-04-23 12:52 34.57532 117.89128 40416 ft 430 kts 169°
2026-04-23 12:52 34.54782 117.90370 41264 ft 420 kts 169°
2026-04-23 12:53 34.52024 117.91424 41655 ft 414 kts 173°
2026-04-23 12:53 34.49204 117.92361 41494 ft 426 kts 173°
2026-04-23 12:53 34.46292 117.93322 41241 ft 441 kts 173°
2026-04-23 12:53 34.43292 117.94339 40982 ft 456 kts 172°
2026-04-23 12:54 34.40198 117.95416 40723 ft 471 kts 171°
2026-04-23 12:54 34.37017 117.96542 40462 ft 483 kts 171°
2026-04-23 12:54 34.33787 117.97698 40212 ft 487 kts 171°
2026-04-23 12:54 34.30540 117.98865 40146 ft 489 kts 171°
2026-04-23 12:55 34.24040 118.01211 40147 ft 489 kts 171°
2026-04-23 12:55 34.17559 118.03583 40149 ft 487 kts 171°
2026-04-23 12:56 34.11086 118.05940 40149 ft 487 kts 171°
2026-04-23 12:56 34.04561 118.08308 40156 ft 487 kts 171°
2026-04-23 12:57 33.98075 118.10663 40155 ft 488 kts 171°
2026-04-23 12:57 33.91591 118.13026 40151 ft 488 kts 171°
2026-04-23 12:58 33.85099 118.15385 40179 ft 488 kts 171°
2026-04-23 12:58 33.78612 118.17744 40178 ft 486 kts 171°
2026-04-23 12:59 33.72145 118.20104 40177 ft 486 kts 171°
2026-04-23 12:59 33.65675 118.22459 40158 ft 487 kts 171°
2026-04-23 13:00 33.60239 118.24435 40157 ft 487 kts 171°
2026-04-23 13:00 33.52704 118.27168 40158 ft 485 kts 171°
2026-04-23 13:01 33.46247 118.29504 40141 ft 486 kts 172°
2026-04-23 13:01 33.39790 118.31838 40140 ft 486 kts 172°
2026-04-23 13:02 33.33333 118.34165 40140 ft 485 kts 172°
2026-04-23 13:02 33.26865 118.36493 40164 ft 486 kts 172°
2026-04-23 13:03 33.20405 118.38819 40151 ft 486 kts 172°
2026-04-23 13:03 33.13902 118.41165 40138 ft 487 kts 172°
2026-04-23 13:04 33.07448 118.43489 40171 ft 487 kts 172°
2026-04-23 13:04 33.00952 118.45824 40164 ft 486 kts 172°
2026-04-23 13:05 32.94494 118.48142 40167 ft 484 kts 172°
2026-04-23 13:05 32.88022 118.50459 40157 ft 484 kts 172°
2026-04-23 13:06 32.78350 118.53912 40165 ft 485 kts 172°
2026-04-23 13:07 32.71896 118.56211 40166 ft 485 kts 172°
2026-04-23 13:07 32.65443 118.58498 40163 ft 482 kts 173°
2026-04-23 13:08 32.58984 118.60697 40170 ft 482 kts 173°
2026-04-23 13:08 32.52536 118.62878 40166 ft 482 kts 173°
2026-04-23 13:09 32.46135 118.65044 40172 ft 481 kts 174°
2026-04-23 13:09 32.39686 118.67228 40170 ft 480 kts 174°
2026-04-23 13:10 32.33291 118.69387 40173 ft 480 kts 174°
2026-04-23 13:10 32.26857 118.71557 40177 ft 479 kts 174°
2026-04-23 13:11 32.20480 118.73701 40176 ft 478 kts 175°
2026-04-23 13:11 32.14046 118.75852 40177 ft 478 kts 175°
2026-04-23 13:12 32.07623 118.77998 40178 ft 479 kts 175°
2026-04-23 13:12 32.01273 118.80121 39883 ft 472 kts 175°
2026-04-23 13:12 31.98122 118.81171 39121 ft 472 kts 175°
2026-04-23 13:13 31.94954 118.82192 38252 ft 474 kts 176°
2026-04-23 13:13 31.91774 118.83193 37471 ft 474 kts 176°
2026-04-23 13:13 31.88599 118.84197 36747 ft 473 kts 176°
2026-04-23 13:13 31.85436 118.85204 36061 ft 470 kts 176°
2026-04-23 13:14 31.82328 118.86255 35328 ft 474 kts 173°
2026-04-23 13:14 31.79217 118.87663 34476 ft 485 kts 167°
2026-04-23 13:14 31.76174 118.89450 33545 ft 496 kts 161°
2026-04-23 13:14 31.73215 118.91615 32554 ft 507 kts 155°
2026-04-23 13:15 31.70284 118.93910 31557 ft 509 kts 155°
2026-04-23 13:15 31.67482 118.96421 30556 ft 517 kts 150°
2026-04-23 13:15 31.64661 118.99070 29516 ft 518 kts 150°
2026-04-23 13:15 31.61885 119.01727 28627 ft 517 kts 149°
2026-04-23 13:16 31.59082 119.04371 28036 ft 507 kts 150°
2026-04-23 13:16 31.56330 119.06856 27452 ft 498 kts 151°
2026-04-23 13:16 31.53606 119.09257 26830 ft 492 kts 151°
2026-04-23 13:16 31.50842 119.11671 26146 ft 488 kts 151°
2026-04-23 13:17 31.48136 119.14032 25504 ft 483 kts 150°
2026-04-23 13:17 31.45457 119.16373 24879 ft 478 kts 150°
2026-04-23 13:17 31.42798 119.18696 24194 ft 476 kts 150°
2026-04-23 13:17 31.40183 119.20978 23572 ft 472 kts 150°
2026-04-23 13:18 31.37565 119.23265 23020 ft 466 kts 150°
2026-04-23 13:18 31.34967 119.25527 22503 ft 460 kts 150°
2026-04-23 13:18 31.32403 119.27754 21955 ft 456 kts 149°
2026-04-23 13:18 31.29880 119.29945 21626 ft 455 kts 149°
2026-04-23 13:19 31.27324 119.32165 21383 ft 456 kts 149°
2026-04-23 13:19 31.24790 119.34368 21138 ft 454 kts 149°
2026-04-23 13:19 31.22253 119.36575 20894 ft 453 kts 149°
2026-04-23 13:19 31.19752 119.38748 20657 ft 452 kts 149°
2026-04-23 13:20 31.17213 119.40962 20418 ft 451 kts 148°
2026-04-23 13:20 31.14708 119.43152 20176 ft 450 kts 148°
2026-04-23 13:20 31.12198 119.45347 19931 ft 449 kts 148°
2026-04-23 13:20 31.09690 119.47540 19691 ft 448 kts 148°
2026-04-23 13:21 31.07237 119.49681 19445 ft 447 kts 148°
2026-04-23 13:21 31.04740 119.51860 19212 ft 446 kts 148°
2026-04-23 13:21 31.02244 119.54034 18975 ft 444 kts 148°
2026-04-23 13:21 30.99798 119.56164 18732 ft 443 kts 148°
2026-04-23 13:22 30.97324 119.58318 18491 ft 442 kts 148°
2026-04-23 13:22 30.95696 119.59734 18334 ft 441 kts 147°
2026-04-23 13:23 30.87593 119.66774 17470 ft 438 kts 148°
2026-04-23 13:23 30.85036 119.68988 17593 ft 455 kts 148°
2026-04-23 13:23 30.82530 119.71169 17800 ft 457 kts 148°
2026-04-23 13:23 30.79988 119.73375 18509 ft 466 kts 148°
2026-04-23 13:24 30.77376 119.75635 18676 ft 471 kts 148°
2026-04-23 13:24 30.74784 119.77881 18014 ft 457 kts 148°
2026-04-23 13:24 30.72296 119.80045 16732 ft 442 kts 147°
2026-04-23 13:24 30.69897 119.82143 16070 ft 426 kts 146°
2026-04-23 13:25 30.67582 119.84237 15354 ft 420 kts 144°
2026-04-23 13:25 30.66105 119.85586 14821 ft 412 kts 145°
2026-04-23 13:25 30.62454 119.88460 13785 ft 407 kts 150°
2026-04-23 13:25 30.58536 119.91006 12810 ft 402 kts 153°
2026-04-23 13:26 30.54710 119.93423 12017 ft 393 kts 152°
2026-04-23 13:26 30.52333 119.94926 11590 ft 384 kts 152°
2026-04-23 13:26 30.49772 119.96549 11157 ft 375 kts 152°
2026-04-23 13:26 30.46511 119.98611 10284 ft 359 kts 152°
2026-04-23 13:27 30.44371 119.99961 9640 ft 340 kts 151°
2026-04-23 13:27 30.41492 120.01784 9400 ft 301 kts 151°
2026-04-23 13:27 30.38909 120.03423 9218 ft 296 kts 151°
2026-04-23 13:27 30.34974 120.05914 8882 ft 294 kts 150°
2026-04-23 13:28 30.32872 120.07243 8614 ft 293 kts 150°
2026-04-23 13:28 30.30275 120.08884 8186 ft 291 kts 150°
2026-04-23 13:28 30.28505 120.10000 7872 ft 289 kts 150°
2026-04-23 13:28 30.25797 120.11707 7392 ft 285 kts 149°
2026-04-23 13:29 30.23911 120.12898 7050 ft 282 kts 149°
2026-04-23 13:29 30.22117 120.13674 6691 ft 272 kts 175°
2026-04-23 13:29 30.20127 120.13169 6364 ft 244 kts 211°
2026-04-23 13:29 30.18450 120.10975 6225 ft 206 kts 245°
2026-04-23 13:30 30.17535 120.08765 5698 ft 197 kts 246°
2026-04-23 13:30 30.15966 120.06935 4639 ft 204 kts 186°
2026-04-23 13:30 30.14400 120.07551 4017 ft 188 kts 127°
2026-04-23 13:30 30.13604 120.09837 3927 ft 194 kts 102°
2026-04-23 13:31 30.12938 120.12389 3937 ft 208 kts 105°
2026-04-23 13:31 30.12577 120.14754 3917 ft 203 kts 81°
2026-04-23 13:31 30.13309 120.17220 3926 ft 200 kts 61°
2026-04-23 13:31 30.14003 120.18723 3913 ft 193 kts 60°
2026-04-23 13:32 30.14640 120.20083 3880 ft 169 kts 60°
2026-04-23 13:32 30.15174 120.21252 3890 ft 160 kts 60°
2026-04-23 13:32 30.15688 120.22392 3804 ft 162 kts 62°
2026-04-23 13:32 30.16202 120.23555 3414 ft 161 kts 61°
2026-04-23 13:33 30.16705 120.24697 3090 ft 159 kts 62°
2026-04-23 13:33 30.17301 120.26057 2835 ft 159 kts 61°
2026-04-23 13:33 30.17835 120.27275 2612 ft 158 kts 61°
2026-04-23 13:33 30.18333 120.28410 2402 ft 158 kts 61°
2026-04-23 13:34 30.18832 120.29546 2187 ft 159 kts 60°
2026-04-23 13:34 30.19560 120.31199 1878 ft 159 kts 61°
2026-04-23 13:34 30.20069 120.32355 1664 ft 160 kts 60°
2026-04-23 13:34 30.20562 120.33467 1446 ft 153 kts 61°
2026-04-23 13:35 30.21016 120.34543 1216 ft 144 kts 65°
2026-04-23 13:35 30.21439 120.35570 970 ft 139 kts 59°
2026-04-23 13:35 30.21893 120.36565 819 ft 140 kts 60°
2026-04-23 13:35 30.22341 120.37573 674 ft 140 kts 60°
2026-04-23 13:36 30.22800 120.38547 551 ft 139 kts 60°
2026-04-23 13:36 30.23248 120.39542 367 ft 139 kts 61°
2026-04-23 13:36 30.23689 120.40540 134 ft 139 kts 61°
2026-04-23 13:36 30.24095 120.41508 51 ft 114 kts 57°
2026-04-23 13:37 30.24243 120.42032 48 ft 48 kts 116°
2026-04-23 13:37 30.24046 120.42297 48 ft 29 kts 133°
2026-04-23 13:37 30.23994 120.42363 48 ft 1 kts 144°
2026-04-23 13:37 30.23990 120.42366 47 ft 0 kts 144°
2026-04-23 13:38 30.24013 120.42356 47 ft 0 kts 155°
2026-04-23 13:38 30.23999 120.42368 48 ft 5 kts 155°
2026-04-23 13:38 30.24014 120.42360 48 ft 0 kts 155°